FW9627 Weather Reports


time (UTC)temp
C
wind
direction
speed
KPH
gust
KPH
rain 1hr
cm
rain 24hr
cm
rain mn
cm
humidity
%
barometer
mb
20260510180224 26 350 3.2 3.2 0.00 0.00 0.00 61 995.9
20260510175721 26 358 1.6 1.6 0.00 0.00 0.00 59 996.3
20260510175216 26 351 1.6 1.6 0.00 0.00 0.00 59 996.1
20260510174714 27 353 0.0 0.0 0.00 0.00 0.00 59 996.3
20260510174211 27 341 0.0 0.0 0.00 0.00 0.00 55 996.4
20260510173707 28 301 0.0 1.6 0.00 0.00 0.00 54 996.8
20260510173203 27 269 1.6 1.6 0.00 0.00 0.00 52 996.5
20260510172658 26 291 0.0 1.6 0.00 0.00 0.00 54 996.4
20260510172155 26 351 1.6 1.6 0.00 0.00 0.00 62 996.6
20260510171652 26 351 1.6 1.6 0.00 0.00 0.00 62 996.6
20260510171149 27 347 1.6 1.6 0.00 0.00 0.00 60 996.8
20260510170645 28 340 0.0 0.0 0.00 0.00 0.00 58 996.7
20260510170142 30 287 0.0 1.6 0.00 0.00 0.00 53 996.8
20260510165638 30 343 0.0 0.0 0.00 0.00 0.00 53 996.5
20260510165134 29 14 1.6 1.6 0.00 0.00 0.00 54 997.0
20260510164632 28 251 3.2 3.2 0.00 0.00 0.00 55 996.7
20260510164128 30 2 1.6 3.2 0.00 0.00 0.00 49 996.6
20260510163624 28 314 0.0 0.0 0.00 0.00 0.00 56 996.7
20260510163120 29 20 0.0 0.0 0.00 0.00 0.00 46 996.7
20260510162614 29 256 3.2 3.2 0.00 0.00 0.00 55 997.0
20260510162111 30 274 1.6 1.6 0.00 0.00 0.00 55 997.0
20260510161607 28 299 1.6 3.2 0.00 0.00 0.00 58 996.9
20260510161104 27 156 3.2 3.2 0.00 0.00 0.00 60 996.9
20260510160601 29 247 0.0 1.6 0.00 0.00 0.00 57 996.8
20260510160101 28 320 1.6 1.6 0.00 0.00 0.00 60 996.9
20260510155558 28 350 3.2 4.8 0.00 0.00 0.00 61 996.8
20260510155054 28 337 1.6 1.6 0.00 0.00 0.00 61 996.9
20260510154549 27 329 3.2 4.8 0.00 0.00 0.00 64 996.8
20260510154045 27 343 1.6 1.6 0.00 0.00 0.00 65 996.6
20260510153540 28 351 3.2 3.2 0.00 0.00 0.00 63 996.6
20260510153037 26 323 0.0 0.0 0.00 0.00 0.00 71 996.8
20260510152534 28 75 3.2 3.2 0.00 0.00 0.00 63 996.5
20260510152030 28 148 0.0 1.6 0.00 0.00 0.00 66 996.6
20260510151527 26 300 0.0 0.0 0.00 0.00 0.00 69 996.7
20260510151025 26 290 1.6 3.2 0.00 0.00 0.00 68 996.6
20260510150519 27 161 4.8 4.8 0.00 0.00 0.00 67 996.5
20260510150016 26 283 0.0 1.6 0.00 0.00 0.00 67 996.7
20260510145512 27 299 0.0 1.6 0.00 0.00 0.00 67 996.8
20260510145009 25 303 0.0 1.6 0.00 0.00 0.00 73 996.7
20260510144505 26 150 6.4 8.0 0.00 0.00 0.00 73 997.0
20260510144000 26 20 0.0 1.6 0.00 0.00 0.00 72 996.6
20260510143451 25 194 4.8 4.8 0.00 0.00 0.00 77 996.5
20260510142948 23 199 6.4 9.7 0.00 0.00 0.00 80 996.4
20260510142444 23 255 1.6 1.6 0.00 0.00 0.00 82 996.5
20260510141941 24 216 3.2 4.8 0.00 0.00 0.00 79 996.6
20260510141437 24 233 3.2 3.2 0.00 0.00 0.00 79 996.5
20260510140935 23 315 0.0 0.0 0.00 0.00 0.00 81 996.1
20260510140426 23 228 3.2 4.8 0.00 0.00 0.00 81 996.3
20260510135924 24 182 3.2 4.8 0.00 0.00 0.00 80 996.1
20260510135415 23 191 4.8 4.8 0.00 0.00 0.00 82 996.1
20260510134913 24 258 0.0 0.0 0.00 0.00 0.00 78 996.1
20260510134409 24 299 0.0 0.0 0.00 0.00 0.00 80 996.1
20260510133905 23 246 0.0 1.6 0.00 0.00 0.00 82 996.1
20260510133402 22 296 0.0 0.0 0.00 0.00 0.00 86 996.1
20260510132857 22 343 0.0 1.6 0.00 0.00 0.00 87 996.1
20260510132355 21 177 0.0 0.0 0.00 0.00 0.00 92 996.1
20260510131852 20 319 0.0 0.0 0.00 0.00 0.00 97 996.3
20260510131349 20 289 0.0 0.0 0.00 0.00 0.00 99 996.0
20260510130846 20 335 0.0 0.0 0.00 0.00 0.00 99 996.0
20260510130343 19 225 0.0 0.0 0.00 0.00 0.00 99 996.0
20260510125840 18 14 0.0 0.0 0.00 0.00 0.00 99 996.0
20260510125336 18 302 0.0 0.0 0.00 0.00 0.00 99 996.1
20260510124833 18 300 0.0 0.0 0.00 0.00 0.00 99 996.2
20260510124330 17 297 0.0 1.6 0.00 0.00 0.00 99 996.1
20260510123826 17 287 0.0 0.0 0.00 0.00 0.00 99 995.9
20260510123321 17 315 0.0 0.0 0.00 0.00 0.00 99 996.2
20260510122817 17 288 0.0 0.0 0.00 0.00 0.00 99 996.0
20260510122314 17 293 0.0 0.0 0.00 0.00 0.00 99 996.1
20260510121810 16 211 1.6 1.6 0.00 0.00 0.00 99 995.9
20260510121308 16 267 1.6 1.6 0.00 0.00 0.00 99 995.6
20260510120805 16 280 0.0 0.0 0.00 0.00 0.00 99 995.7
20260510120301 16 287 0.0 0.0 0.00 0.00 0.00 99 995.5
20260510115757 16 287 0.0 0.0 0.00 0.00 0.00 99 995.6
20260510115255 15 292 0.0 0.0 0.00 0.00 0.00 99 995.7
20260510114750 15 294 0.0 0.0 0.00 0.00 0.00 99 995.7
20260510114247 15 292 0.0 0.0 0.00 0.00 0.00 99 995.7
20260510113742 15 305 0.0 0.0 0.00 0.00 0.00 99 995.4
20260510113240 15 305 0.0 0.0 0.00 0.00 0.00 99 995.5
20260510112736 14 294 0.0 0.0 0.00 0.00 0.00 99 995.2
20260510112233 14 300 0.0 0.0 0.00 0.00 0.00 99 995.0
20260510111728 14 283 0.0 0.0 0.00 0.00 0.00 99 995.0
20260510111226 14 273 0.0 0.0 0.00 0.00 0.00 99 994.8
20260510110725 14 282 0.0 0.0 0.00 0.00 0.00 99 994.7
20260510110224 14 282 0.0 0.0 0.00 0.00 0.00 99 994.6
20260510105723 14 282 0.0 0.0 0.00 0.00 0.00 99 994.7
20260510105218 15 282 0.0 0.0 0.00 0.00 0.00 99 994.3
20260510104715 14 286 0.0 0.0 0.00 0.00 0.00 99 994.7
20260510104212 14 293 0.0 0.0 0.00 0.00 0.00 99 994.4
20260510103708 15 294 0.0 0.0 0.00 0.00 0.00 99 994.2
20260510103206 15 294 0.0 0.0 0.00 0.00 0.00 99 994.1
20260510102700 14 294 0.0 0.0 0.00 0.00 0.00 99 994.4
20260510102156 15 294 0.0 0.0 0.00 0.00 0.00 99 994.1
20260510101654 15 293 0.0 0.0 0.00 0.00 0.00 99 994.2
20260510101152 15 294 0.0 0.0 0.00 0.00 0.00 99 994.1
20260510100653 15 293 0.0 0.0 0.00 0.00 0.00 99 994.2
20260510100151 15 293 0.0 0.0 0.00 0.00 0.00 99 994.1
20260510095646 15 293 0.0 0.0 0.00 0.00 0.00 99 994.0
20260510095141 15 298 0.0 0.0 0.00 0.00 0.00 99 993.8
20260510094640 15 298 0.0 0.0 0.00 0.00 0.00 99 993.9
20260510094136 15 311 0.0 0.0 0.00 0.00 0.00 99 993.9
20260510093632 15 327 0.0 0.0 0.00 0.00 0.00 99 993.7
20260510093130 15 327 0.0 0.0 0.00 0.00 0.00 99 993.7
20260510092626 15 327 0.0 0.0 0.00 0.00 0.00 99 993.6
20260510092121 15 329 0.0 0.0 0.00 0.00 0.00 99 993.4
20260510091617 15 331 1.6 1.6 0.00 0.00 0.00 99 993.6
20260510091114 15 315 0.0 0.0 0.00 0.00 0.00 99 993.4
20260510090611 15 306 0.0 0.0 0.00 0.00 0.00 99 993.4
20260510090107 15 305 0.0 0.0 0.00 0.00 0.00 99 993.6
20260510085602 15 295 0.0 0.0 0.00 0.00 0.00 99 993.6
20260510085058 16 295 0.0 0.0 0.00 0.00 0.00 99 993.3
20260510084554 16 294 0.0 0.0 0.00 0.00 0.00 99 993.6
20260510084051 15 288 0.0 0.0 0.00 0.00 0.00 99 993.5
20260510083548 16 293 0.0 0.0 0.00 0.00 0.00 99 993.4
20260510083044 16 293 0.0 0.0 0.00 0.00 0.00 99 993.4
20260510082541 15 315 0.0 0.0 0.00 0.00 0.00 99 993.7
20260510082036 16 316 0.0 0.0 0.00 0.00 0.00 99 993.5
20260510081532 16 316 0.0 0.0 0.00 0.00 0.00 99 993.3
20260510081027 16 316 0.0 0.0 0.00 0.00 0.00 99 993.5
20260510080526 16 316 0.0 0.0 0.00 0.00 0.00 99 993.4
20260510080024 16 316 0.0 0.0 0.00 0.00 0.00 99 993.4
20260510075521 16 316 0.0 0.0 0.00 0.00 0.00 99 993.3
20260510075018 16 316 0.0 0.0 0.00 0.00 0.00 99 993.6
20260510074516 16 307 0.0 0.0 0.00 0.00 0.00 99 993.2
20260510074011 16 291 0.0 0.0 0.00 0.00 0.00 99 993.2
20260510073507 16 282 0.0 0.0 0.00 0.00 0.00 99 993.4
20260510073004 16 276 1.6 1.6 0.00 0.00 0.00 99 993.3
20260510072500 16 253 1.6 1.6 0.00 0.00 0.00 99 993.4
20260510071956 16 288 0.0 0.0 0.00 0.00 0.00 99 993.5
20260510071452 16 278 0.0 1.6 0.00 0.00 0.00 99 993.4
20260510070950 16 286 0.0 0.0 0.00 0.00 0.00 99 993.0
20260510070448 16 289 0.0 1.6 0.00 0.00 0.00 99 993.0
20260510065943 16 268 1.6 1.6 0.00 0.00 0.00 99 993.2
20260510065440 17 258 3.2 3.2 0.00 0.00 0.00 99 993.3
20260510064936 17 260 1.6 1.6 0.00 0.00 0.00 99 993.1
20260510064434 17 280 0.0 1.6 0.00 0.00 0.00 99 993.1
20260510063930 17 257 1.6 1.6 0.00 0.00 0.00 99 993.3
20260510063426 17 269 0.0 0.0 0.00 0.00 0.00 99 993.1
20260510062924 17 272 0.0 1.6 0.00 0.00 0.00 99 993.2
20260510062419 17 285 0.0 0.0 0.00 0.00 0.00 98 992.9
20260510061915 17 286 0.0 1.6 0.00 0.00 0.00 98 993.2
20260510061412 17 265 0.0 0.0 0.00 0.00 0.00 98 993.2
20260510060908 17 286 1.6 1.6 0.00 0.00 0.00 98 993.3
20260510060405 17 272 0.0 0.0 0.00 0.00 0.00 98 993.4
20260510055901 17 289 0.0 0.0 0.00 0.00 0.00 98 993.2
20260510055356 17 281 0.0 0.0 0.00 0.00 0.00 98 993.0
20260510054854 17 271 1.6 1.6 0.00 0.00 0.00 98 993.2
20260510054350 17 282 1.6 1.6 0.00 0.00 0.00 98 993.1
20260510053845 17 235 1.6 1.6 0.00 0.00 0.00 98 993.2
20260510053341 17 269 1.6 1.6 0.00 0.00 0.00 98 993.4
20260510052837 17 294 0.0 0.0 0.00 0.00 0.00 97 993.2
20260510052327 17 263 1.6 1.6 0.00 0.00 0.00 97 993.4
20260510051824 17 298 0.0 0.0 0.00 0.00 0.00 97 993.3
20260510051321 17 289 0.0 0.0 0.00 0.00 0.00 97 993.2
20260510050818 17 299 0.0 0.0 0.00 0.00 0.00 96 993.4
20260510050314 17 273 0.0 0.0 0.00 0.00 0.00 97 993.3
20260510045812 17 295 0.0 0.0 0.00 0.00 0.00 96 993.3
20260510045308 17 291 0.0 0.0 0.00 0.00 0.00 96 993.0
20260510044805 17 279 0.0 1.6 0.00 0.00 0.00 96 993.0
20260510044302 17 284 0.0 0.0 0.00 0.00 0.00 95 993.0
20260510043758 17 280 0.0 0.0 0.00 0.00 0.00 95 993.0
20260510043249 17 300 0.0 0.0 0.00 0.00 0.00 94 993.1
20260510042746 18 308 0.0 0.0 0.00 0.00 0.00 94 993.2
20260510042241 18 291 0.0 0.0 0.00 0.00 0.00 93 993.3
20260510041739 18 287 0.0 0.0 0.00 0.00 0.00 93 993.3
20260510041236 18 352 0.0 0.0 0.00 0.00 0.00 92 993.1
20260510040733 18 287 0.0 0.0 0.00 0.00 0.00 92 992.9
20260510040230 18 280 0.0 0.0 0.00 0.00 0.00 92 993.2
20260510035725 18 288 0.0 0.0 0.00 0.00 0.00 92 993.1
20260510035221 18 227 3.2 3.2 0.00 0.00 0.00 92 993.2
20260510034717 18 262 1.6 1.6 0.00 0.00 0.00 91 993.6
20260510034215 18 179 3.2 3.2 0.00 0.00 0.00 93 993.3
20260510033711 18 277 0.0 0.0 0.00 0.00 0.00 93 993.4
20260510033209 17 284 0.0 0.0 0.00 0.00 0.00 94 993.2
20260510032705 17 292 0.0 0.0 0.00 0.00 0.00 94 993.2
20260510032201 17 259 1.6 1.6 0.00 0.00 0.00 94 993.2
20260510031655 17 284 0.0 0.0 0.00 0.00 0.00 94 993.2
20260510031152 17 278 1.6 1.6 0.00 0.00 0.00 94 993.3
20260510030646 17 267 3.2 3.2 0.00 0.00 0.00 93 993.2
20260510030145 17 259 1.6 1.6 0.00 0.00 0.00 92 993.4
20260510025642 17 274 1.6 1.6 0.00 0.00 0.00 92 993.1
20260510025139 18 273 1.6 1.6 0.00 0.00 0.00 91 993.2
20260510024636 18 335 0.0 0.0 0.00 0.00 0.00 89 993.2
20260510024132 18 337 0.0 0.0 0.00 0.00 0.00 88 993.2
20260510023628 18 352 0.0 0.0 0.00 0.00 0.00 87 993.0
20260510023125 18 31 0.0 1.6 0.00 0.00 0.00 88 993.1
20260510022625 18 300 0.0 0.0 0.00 0.00 0.00 88 992.8
20260510022120 18 275 1.6 1.6 0.00 0.00 0.00 88 992.8
20260510021611 18 274 1.6 1.6 0.00 0.00 0.00 89 992.6
20260510021108 18 276 0.0 0.0 0.00 0.00 0.00 88 992.7
20260510020602 18 278 0.0 1.6 0.00 0.00 0.00 89 992.7
20260510020058 18 243 0.0 0.0 0.00 0.00 0.00 88 992.5
20260510015554 18 306 0.0 0.0 0.00 0.00 0.00 87 992.0
20260510015050 18 275 0.0 0.0 0.00 0.00 0.00 87 992.0
20260510014546 19 313 0.0 0.0 0.00 0.00 0.00 85 992.1
20260510014044 19 314 0.0 0.0 0.00 0.00 0.00 83 991.9
20260510013538 20 286 0.0 0.0 0.00 0.00 0.00 82 991.6
20260510013034 20 304 0.0 0.0 0.00 0.00 0.00 81 991.6
20260510012528 20 314 0.0 0.0 0.00 0.00 0.00 80 991.3
20260510012025 20 313 0.0 0.0 0.00 0.00 0.00 80 991.6
20260510011525 21 314 0.0 0.0 0.00 0.00 0.00 79 991.4
20260510011021 21 317 0.0 0.0 0.00 0.00 0.00 77 991.1
20260510010518 21 295 0.0 0.0 0.00 0.00 0.00 76 991.1
20260510010015 21 278 1.6 1.6 0.00 0.00 0.00 76 991.1
20260510005510 22 301 0.0 0.0 0.00 0.00 0.00 74 991.1
20260510005008 22 329 0.0 0.0 0.00 0.00 0.00 74 991.1
20260510004505 22 323 0.0 1.6 0.00 0.00 0.00 73 990.8
20260510004003 22 315 0.0 0.0 0.00 0.00 0.00 71 990.9
20260510003500 22 313 0.0 0.0 0.00 0.00 0.00 71 990.8
20260510002955 23 318 0.0 0.0 0.00 0.00 0.00 70 990.6
20260510002451 23 320 0.0 0.0 0.00 0.00 0.00 69 990.6
20260510001947 23 314 0.0 0.0 0.00 0.00 0.00 67 990.6
20260510001445 23 300 0.0 0.0 0.00 0.00 0.00 65 990.5
20260510000943 23 307 0.0 0.0 0.00 0.00 0.00 63 990.7
20260510000440 23 243 1.6 1.6 0.00 0.00 0.00 60 990.5
20260509235935 24 300 0.0 0.0 0.00 0.00 0.00 48 990.6
20260509235432 25 309 0.0 1.6 0.00 0.00 0.00 45 990.4
20260509234928 25 310 1.6 1.6 0.00 0.00 0.00 44 990.5
20260509234425 25 303 0.0 0.0 0.00 0.00 0.00 42 990.5
20260509233923 25 305 0.0 0.0 0.00 0.00 0.00 41 990.4
20260509233421 25 301 0.0 0.0 0.00 0.00 0.00 42 990.5
20260509232916 25 302 0.0 1.6 0.00 0.00 0.00 41 990.3
20260509232414 25 301 0.0 1.6 0.00 0.00 0.00 41 990.4
20260509231910 25 298 0.0 0.0 0.00 0.00 0.00 42 990.5
20260509231407 26 331 0.0 0.0 0.00 0.00 0.00 41 990.5
20260509230905 26 321 0.0 1.6 0.00 0.00 0.00 41 990.6
20260509230401 26 282 1.6 1.6 0.00 0.00 0.00 43 990.4
20260509225857 26 311 0.0 0.0 0.00 0.00 0.00 40 990.5
20260509225353 26 17 0.0 1.6 0.00 0.00 0.00 42 990.2
20260509224849 27 332 0.0 1.6 0.00 0.00 0.00 43 990.2
20260509224345 27 250 3.2 3.2 0.00 0.00 0.00 42 990.1
20260509223842 28 30 3.2 3.2 0.00 0.00 0.00 41 990.0
20260509223339 28 280 1.6 1.6 0.00 0.00 0.00 37 990.0
20260509222836 28 295 0.0 1.6 0.00 0.00 0.00 36 990.1
20260509222331 28 313 0.0 1.6 0.00 0.00 0.00 38 989.9
20260509221827 28 313 1.6 1.6 0.00 0.00 0.00 38 989.8
20260509221325 29 328 0.0 1.6 0.00 0.00 0.00 37 989.8
20260509220825 29 302 0.0 0.0 0.00 0.00 0.00 38 989.9
20260509220321 28 294 0.0 1.6 0.00 0.00 0.00 37 989.9
20260509215817 27 306 0.0 0.0 0.00 0.00 0.00 38 990.0
20260509215314 28 347 4.8 8.0 0.00 0.00 0.00 38 989.8
20260509214811 30 12 3.2 4.8 0.00 0.00 0.00 35 990.0
20260509214308 30 263 1.6 1.6 0.00 0.00 0.00 37 989.9
20260509213804 30 295 1.6 1.6 0.00 0.00 0.00 36 990.1
20260509213300 30 314 1.6 1.6 0.00 0.00 0.00 37 990.2
20260509212758 28 322 1.6 1.6 0.00 0.00 0.00 37 990.2
20260509212255 28 327 1.6 3.2 0.00 0.00 0.00 39 990.2
20260509211750 28 301 0.0 1.6 0.00 0.00 0.00 39 990.3
20260509211247 28 282 3.2 3.2 0.00 0.00 0.00 38 990.1
20260509210743 29 0 3.2 3.2 0.00 0.00 0.00 38 990.3
20260509210242 29 326 1.6 1.6 0.00 0.00 0.00 38 990.6
20260509205741 30 105 1.6 1.6 0.00 0.00 0.00 37 990.4
20260509205236 30 298 0.0 0.0 0.00 0.00 0.00 36 990.4
20260509204732 29 297 3.2 3.2 0.00 0.00 0.00 39 990.2
20260509204229 27 219 0.0 1.6 0.00 0.00 0.00 41 990.1
20260509203725 28 6 4.8 4.8 0.00 0.00 0.00 38 990.2
20260509203223 28 306 1.6 1.6 0.00 0.00 0.00 39 990.2
20260509202719 29 342 3.2 3.2 0.00 0.00 0.00 37 990.4
20260509202215 28 320 0.0 1.6 0.00 0.00 0.00 43 990.2
20260509201709 28 155 4.8 4.8 0.00 0.00 0.00 36 990.5
20260509201207 30 212 3.2 3.2 0.00 0.00 0.00 33 990.4
20260509200703 31 178 1.6 1.6 0.00 0.00 0.00 36 990.5
20260509200157 31 255 3.2 4.8 0.00 0.00 0.00 35 990.4
20260509195653 30 299 0.0 1.6 0.00 0.00 0.00 38 990.4
20260509195149 30 292 0.0 1.6 0.00 0.00 0.00 38 990.8
20260509194643 28 230 1.6 1.6 0.00 0.00 0.00 42 990.7
20260509194141 27 349 4.8 4.8 0.00 0.00 0.00 42 990.6
20260509193636 27 6 1.6 1.6 0.00 0.00 0.00 41 990.7
20260509193132 29 326 1.6 1.6 0.00 0.00 0.00 40 990.9
20260509192629 29 350 3.2 3.2 0.00 0.00 0.00 36 991.0
20260509192123 28 311 0.0 0.0 0.00 0.00 0.00 39 990.9
20260509191618 30 293 0.0 0.0 0.00 0.00 0.00 40 990.7
20260509191115 28 292 1.6 3.2 0.00 0.00 0.00 42 990.8
20260509190611 28 312 3.2 3.2 0.00 0.00 0.00 40 991.0
20260509190109 30 189 3.2 3.2 0.00 0.00 0.00 37 991.1
20260509185606 31 322 1.6 1.6 0.00 0.00 0.00 36 991.0
20260509185102 29 306 0.0 0.0 0.00 0.00 0.00 42 990.8
20260509184601 28 301 1.6 1.6 0.00 0.00 0.00 40 991.1
20260509184057 27 237 3.2 3.2 0.00 0.00 0.00 42 991.0
20260509183552 27 36 3.2 3.2 0.00 0.00 0.00 44 991.0
20260509183048 28 149 1.6 1.6 0.00 0.00 0.00 42 991.1
20260509182545 30 148 4.8 8.0 0.00 0.00 0.00 39 991.3
20260509182042 31 279 0.0 1.6 0.00 0.00 0.00 39 991.4
20260509181540 28 255 1.6 3.2 0.00 0.00 0.00 43 991.1
20260509181037 30 348 3.2 3.2 0.00 0.00 0.00 44 991.3
20260509180532 28 317 1.6 1.6 0.00 0.00 0.00 47 991.2